Petersburg, VA

9:03 PM EDT on April 30, 2017 (GMT -0400)
Dinwiddie County

Weather History for KPTB - April, 2013

Change the Weather History Date:

Sunday, April 28, 2013

  Actual Average (KRIC) Record (KRIC)
Temperature  
Mean Temperature 57 °F -  
Max Temperature 68 °F 71 °F 93 °F (1957)
Min Temperature 46 °F 48 °F 32 °F (1931)
Degree Days  
Heating Degree Days 8    
Growing Degree Days 7 (Base 50)    
Moisture  
Dew Point 44 °F    
Average Humidity 65    
Maximum Humidity 94    
Minimum Humidity 28    
Precipitation  
Precipitation 0.03 in - - ()
Sea Level Pressure  
Sea Level Pressure 30.25 in    
Wind  
Wind Speed 1 mph (SE)    
Max Wind Speed 6 mph    
Max Gust Speed -    
Visibility 10 miles    
Events Rain    
Averages and records for this station are not official NWS values.
T = Trace of Precipitation, MM = Missing Value Source: NWS Daily Summary

Daily Weather History Graph

Daily Weather History Graph

Search for Another Location

Airport or City:

Trip Planner

Search our weather history database for the weather conditions in past years. The results will help you decide how hot, cold, wet, or windy it might be!

Date:

Astronomy

Apr. 28, 2013 Rise Set
Actual Time 6:18 AM EDT 7:56 PM EDT
Civil Twilight 5:50 AM EDT 8:24 PM EDT
Nautical Twilight 5:17 AM EDT 8:58 PM EDT
Astronomical Twilight 4:42 AM EDT 9:33 PM EDT
Moon 11:22 PM EDT (4/28) 8:35 AM EDT (4/28)
Length of Visible Light 14h 33m
Length of Day
13h 38m
Waning Gibbous, 89% of the Moon is Illuminated
Apr 28
Waning Gibbous
May 2
Last Quarter
May 9
New
May 18
First Quarter
May 25
Full

Hourly Weather History & Observations

Time (EDT) Temp. Dew Point Humidity Pressure Visibility Wind Dir Wind Speed Gust Speed Precip Events Conditions
12:15 AM 53.6 °F 41.0 °F 62% 30.30 in 10.0 mi Calm Calm - N/A Rain Light Rain
12:35 AM 53.6 °F 41.0 °F 62% 30.30 in 10.0 mi Calm Calm - N/A   Light Drizzle
12:55 AM 53.6 °F 39.2 °F 58% 30.30 in 10.0 mi Calm Calm - N/A Rain Light Rain
1:15 AM 48.2 °F 41.0 °F 76% 30.31 in 10.0 mi Calm Calm - N/A   Light Drizzle
1:35 AM 48.2 °F 42.8 °F 82% 30.31 in 10.0 mi Calm Calm - N/A   Clear
1:55 AM 46.4 °F 42.8 °F 87% 30.30 in 10.0 mi Calm Calm - N/A   Scattered Clouds
2:15 AM 48.2 °F 42.8 °F 82% 30.29 in 10.0 mi Calm Calm - N/A Rain Light Rain
2:35 AM 46.4 °F 42.8 °F 87% 30.28 in 10.0 mi Calm Calm - N/A Rain Light Rain
2:55 AM 46.4 °F 42.8 °F 87% 30.28 in 10.0 mi Calm Calm - N/A   Light Drizzle
3:15 AM 46.4 °F 42.8 °F 87% 30.28 in 10.0 mi Calm Calm - N/A   Clear
3:35 AM 46.4 °F 44.6 °F 93% 30.27 in 10.0 mi Calm Calm - N/A   Clear
3:55 AM 50.0 °F 44.6 °F 82% 30.27 in 10.0 mi Calm Calm - N/A   Clear
4:15 AM 51.8 °F 42.8 °F 71% 30.27 in 10.0 mi Calm Calm - N/A Rain Light Rain
4:35 AM 51.8 °F 42.8 °F 71% 30.27 in 10.0 mi Calm Calm - N/A   Clear
4:55 AM 51.8 °F 42.8 °F 71% 30.26 in 10.0 mi Calm Calm - N/A Rain Light Rain
5:15 AM 51.8 °F 42.8 °F 71% 30.26 in 10.0 mi Calm Calm - N/A Rain Light Rain
5:35 AM 50.0 °F 42.8 °F 76% 30.26 in 10.0 mi Calm Calm - N/A Rain Light Rain
5:55 AM 48.2 °F 42.8 °F 82% 30.26 in 10.0 mi Calm Calm - N/A   Clear
6:15 AM 48.2 °F 42.8 °F 82% 30.26 in 10.0 mi Calm Calm - N/A Rain Light Rain
6:35 AM 48.2 °F 42.8 °F 82% 30.26 in 10.0 mi Calm Calm - N/A   Light Drizzle
6:55 AM 50.0 °F 42.8 °F 76% 30.27 in 10.0 mi Calm Calm - N/A Rain Light Rain
7:15 AM 51.8 °F 42.8 °F 71% 30.28 in 10.0 mi Calm Calm - N/A   Light Drizzle
7:35 AM 51.8 °F 42.8 °F 71% 30.29 in 10.0 mi Calm Calm - N/A Rain Light Rain
7:55 AM 53.6 °F 44.6 °F 72% 30.29 in 10.0 mi Calm Calm - N/A   Light Drizzle
8:15 AM 53.6 °F 42.8 °F 67% 30.29 in 10.0 mi SSE 3.5 mph - N/A Rain Light Rain
8:35 AM 55.4 °F 42.8 °F 63% 30.28 in 10.0 mi Calm Calm - N/A   Light Drizzle
9:15 AM 57.2 °F 44.6 °F 63% 30.28 in 10.0 mi Calm Calm - N/A Rain Light Rain
9:35 AM 59.0 °F 42.8 °F 55% 30.28 in 10.0 mi South 3.5 mph - N/A   Clear
9:55 AM 62.6 °F 35.6 °F 37% 30.27 in 10.0 mi SSE 5.8 mph - N/A   Clear
10:15 AM 62.6 °F 33.8 °F 34% 30.27 in 10.0 mi SSE 5.8 mph - N/A   Clear
10:35 AM 64.4 °F 33.8 °F 32% 30.27 in 10.0 mi SSE 5.8 mph - N/A   Clear
10:55 AM 64.4 °F 32.0 °F 30% 30.27 in 10.0 mi SE 4.6 mph - N/A   Clear
11:15 AM 66.2 °F 33.8 °F 30% 30.27 in 10.0 mi Calm Calm - N/A   Scattered Clouds
11:35 AM 68.0 °F 33.8 °F 28% 30.27 in 10.0 mi SSE 4.6 mph - N/A   Scattered Clouds
11:55 AM 66.2 °F 33.8 °F 30% 30.26 in 10.0 mi SE 5.8 mph - N/A   Scattered Clouds
12:15 PM 66.2 °F 33.8 °F 30% 30.27 in 10.0 mi SE 5.8 mph - N/A   Scattered Clouds
12:35 PM 66.2 °F 35.6 °F 32% 30.26 in 10.0 mi SE 3.5 mph - N/A   Scattered Clouds
12:55 PM 66.2 °F 35.6 °F 32% 30.25 in 10.0 mi ESE 3.5 mph - N/A   Scattered Clouds
1:15 PM 66.2 °F 35.6 °F 32% 30.26 in 10.0 mi Calm Calm - N/A   Mostly Cloudy
1:35 PM 66.2 °F 37.4 °F 35% 30.25 in 10.0 mi Calm Calm - N/A   Mostly Cloudy
1:55 PM 68.0 °F 39.2 °F 35% 30.25 in 10.0 mi SE 3.5 mph - N/A   Mostly Cloudy
2:15 PM 66.2 °F 39.2 °F 37% 30.24 in 10.0 mi Calm Calm - N/A   Mostly Cloudy
2:35 PM 66.2 °F 39.2 °F 37% 30.24 in 10.0 mi Calm Calm - N/A Rain Light Rain
2:55 PM 64.4 °F 46.4 °F 52% 30.23 in 10.0 mi Calm Calm - N/A Rain Light Rain
3:15 PM 64.4 °F 46.4 °F 52% 30.23 in 10.0 mi Calm Calm - N/A Rain Light Rain
3:35 PM 64.4 °F 46.4 °F 52% 30.22 in 10.0 mi Calm Calm - N/A Rain Light Rain
3:55 PM 64.4 °F 46.4 °F 52% 30.21 in 10.0 mi East 3.5 mph - N/A Rain Light Rain
4:15 PM 64.4 °F 46.4 °F 52% 30.20 in 10.0 mi Calm Calm - N/A   Clear
4:35 PM 64.4 °F 46.4 °F 52% 30.20 in 10.0 mi Calm Calm - N/A Rain Light Rain
4:55 PM 64.4 °F 46.4 °F 52% 30.20 in 10.0 mi Calm Calm - N/A Rain Light Rain
5:15 PM 64.4 °F 46.4 °F 52% 30.19 in 10.0 mi Calm Calm - N/A Rain Light Rain
5:35 PM 62.6 °F 50.0 °F 63% 30.19 in 10.0 mi Calm Calm - N/A Rain Light Rain
5:55 PM 62.6 °F 53.6 °F 72% 30.18 in 10.0 mi Calm Calm - N/A Rain Light Rain
6:15 PM 60.8 °F 53.6 °F 77% 30.17 in 10.0 mi East 3.5 mph - N/A Rain Light Rain
6:35 PM 60.8 °F - N/A% 30.16 in 10.0 mi Calm Calm - N/A Rain Light Rain
6:55 PM 59.0 °F 55.4 °F 88% 30.16 in 10.0 mi Calm Calm - N/A Rain Light Rain
7:15 PM 59.0 °F 53.6 °F 82% 30.15 in 10.0 mi East 3.5 mph - N/A   Light Drizzle
7:35 PM 59.0 °F 53.6 °F 82% 30.14 in 10.0 mi Calm Calm - N/A Rain Light Rain
7:55 PM 59.0 °F 53.6 °F 82% 30.15 in 10.0 mi ESE 4.6 mph - N/A Rain Light Rain
8:15 PM 57.2 °F 53.6 °F 88% 31.00 in 10.0 mi Calm Calm - N/A Rain Light Rain
8:35 PM 57.2 °F 53.6 °F 88% 30.15 in 10.0 mi Calm Calm - N/A Rain Light Rain
8:55 PM 57.2 °F 53.6 °F 88% 30.16 in 10.0 mi ESE 3.5 mph - N/A Rain Light Rain
9:15 PM - - N/A% 30.16 in 10.0 mi Calm Calm - N/A Rain Light Rain
9:35 PM 57.2 °F 53.6 °F 88% 30.17 in 10.0 mi Calm Calm - N/A   Light Drizzle
9:55 PM 57.2 °F 55.4 °F 94% 30.17 in 7.0 mi Calm Calm - 0.01 in Rain Light Rain
10:15 PM - - N/A% 30.17 in 7.0 mi Calm Calm - 0.01 in   Drizzle
10:35 PM 57.2 °F 55.4 °F 94% 30.16 in 7.0 mi ESE 4.6 mph - 0.02 in   Light Drizzle
10:55 PM 57.2 °F 55.4 °F 94% 30.15 in 10.0 mi ESE 4.6 mph - 0.02 in Rain Light Rain
11:15 PM 57.2 °F 55.4 °F 94% 30.14 in 10.0 mi ESE 3.5 mph - N/A Rain Light Rain
11:35 PM 57.2 °F 53.6 °F 88% 30.13 in 10.0 mi ESE 3.5 mph - N/A Rain Light Rain
11:55 PM 57.2 °F 53.6 °F 88% 30.13 in 7.0 mi East 3.5 mph - N/A   Light Drizzle